Terminal Aerodrome Forecast
Issued by NWS Dodge City, KS

Home | Current Version | Previous Version | Graphics & Text | Print | Product List | Glossary Off
Versions: 1 2 3 4 5 6 7 8 9 10 11 12 13 14 15 16 17 18 19 20 21 22 23 24 25 26 27 28 29 30 31 32 33 34 35 36 37 38 39 40 41 42 43 44 45 46 47

881
FTUS43 KDDC 061720
TAFDDC
TAF
KDDC 061720Z 0618/0718 35012KT P6SM SCT250
     FM062000 VRB04KT P6SM OVC150
     FM070000 13006KT P6SM OVC100
     FM070600 11010G20KT P6SM OVC070
     FM071200 08015G25KT P6SM OVC050
     FM071600 05017G27KT P6SM VCSH OVC020=

USA.gov is the U.S. government's official web portal to all federal, state and local government web resources and services.